User: anonymous   Login
Location: Ida Center
(41.8662°N, 83.5713°W)
Time: 09:56:11
(UTC+00:00)
Language:

Feng Yun 1-1 Rocket - Orbit

View from above orbital plane
View from above orbital plane
View from above satellite
View from above satellite

Ground track
Ground track

The orbit data is extracted from the following two-line orbital elements,

1 19468U 88080B   20018.63281730 -.00000004 +00000-0 +26757-4 0  9999
2 19468 099.2222 029.6938 0070797 297.4409 169.8826 14.03531187605709
Epoch (UTC): 18 January 2020 15:11:15
Eccentricity: 0.0070797
inclination: 99.2222°
perigee height: 830 km
apogee height: 933 km
right ascension of ascending node: 29.6938°
argument of perigee: 297.4409°
revolutions per day: 14.03531187
mean anomaly at epoch: 169.8826°
orbit number at epoch: 60570

The dashed part of the orbit path shows where the satellite is in the earth's shadow,  

DLR